軌道要素
Epoch 2017 Oct. 14.0 TT = JDT 2458040.5
T 2017 Nov. 1.90181 TT MPCW
q 3.9573409 (2000.0) P Q
n 0.01942001 Peri. 169.15179 -0.68705753 -0.02540201
a 13.7078618 Node 312.80928 +0.57025826 +0.60048390
e 0.7113087 Incl. 98.17838 +0.45028598 -0.79923327
P 50.75
From 158 observations 2017 Nov. 26-2018 May 12, mean residual 0".4.
|